This demonstration page uses our WeatherBlox Daily Observations layout. Learn more.

38.88101, -77.10428

Hourly Observations for September 6, 2018

Temp ( °F °C ) Dew Point ( °F °C ) Humidity (%) Winds ( mph kmh ) Pressure ( in mb ) Visibility ( mi km ) Precip ( " mm )
12:52 am 00:52 Clear 82 27.8 76 24.4 82 82 S 8 13 30.19 1022 10 16.0934 0 0
1:52 am 01:52 Clear 81 27.2 75 23.9 82 82 S 7 11 30.18 1022 10 16.0934 0 0
2:52 am 02:52 Clear 80 26.7 74 23.3 82 82 SW 7 11 30.17 1022 10 16.0934 0 0
3:52 am 03:52 Clear 80 26.7 74 23.3 82 82 S 5 7 30.17 1022 10 16.0934 0 0
4:52 am 04:52 Clear 79 26.1 74 23.3 85 85 SSW 6 9 30.16 1022 10 16.0934 0 0
5:52 am 05:52 Clear 78 25.6 74 23.3 87 87 SW 5 7 30.17 1022 10 16.0934 0 0
6:52 am 06:52 Partly Cloudy 79 26.1 74 23.3 85 85 SSW 5 7 30.18 1022 10 16.0934 0 0
7:52 am 07:52 Partly Cloudy 80 26.7 74 23.3 82 82 SSW 5 7 30.18 1022 10 16.0934 0 0
8:52 am 08:52 Mostly Sunny 82 27.8 75 23.9 79 79 SSE 6 9 30.17 1022 10 16.0934 0 0
9:52 am 09:52 Mostly Sunny 84 28.9 75 23.9 74 74 S 6 9 30.17 1022 10 16.0934 0 0
10:52 am 10:52 Mostly Sunny 87 30.6 76 24.4 70 70 S 8 13 30.17 1022 10 16.0934 0 0
11:52 am 11:52 Mostly Sunny 90 32.2 74 23.3 59 59 S 9 15 30.16 1021 10 16.0934 0 0
12:52 pm 12:52 Mostly Sunny 91 32.8 72 22.2 54 54 S 13 20 30.15 1021 10 16.0934 0 0
1:52 pm 13:52 Mostly Sunny 92 33.3 71 21.7 51 51 S 13 20 30.12 1020 10 16.0934 0 0
2:52 pm 14:52 Mostly Sunny 93 33.9 69 20.6 46 46 S 10 17 30.1 1019 10 16.0934 0 0
3:52 pm 15:52 Mostly Sunny 92 33.3 71 21.7 51 51 S 13 20 30.09 1019 10 16.0934 0 0
4:52 pm 16:52 Mostly Sunny 92 33.3 71 21.7 51 51 S 9 15 30.08 1019 10 16.0934 0 0
5:52 pm 17:52 Mostly Sunny 91 32.8 72 22.2 54 54 S 10 17 30.08 1019 10 16.0934 0 0
6:52 pm 18:52 Partly Cloudy 89 31.7 74 23.3 61 61 S 8 13 30.08 1019 10 16.0934 0 0
7:24 pm 19:24 Partly Cloudy 87 30.6 74 23.3 65 65 S 8 13 30.09 1019 10 16.0934 0 0
7:52 pm 19:52 Partly Cloudy 88 31.1 72 22.2 59 59 S 7 11 30.1 1019 10 16.0934 0 0
8:07 pm 20:07 Partly Cloudy 87 30.6 72 22.2 61 61 SSW 7 11 30.09 1019 10 16.0934 0 0
8:52 pm 20:52 Partly Cloudy 88 31.1 72 22.2 59 59 NW 7 11 30.11 1020 10 16.0934 0 0
9:52 pm 21:52 Mostly Cloudy 84 28.9 69 20.6 61 61 N 6 9 30.13 1020 10 16.0934 0 0
10:52 pm 22:52 Partly Cloudy 83 28.3 70 21.1 65 65 N 5 7 30.13 1020 10 16.0934 0 0
11:52 pm 23:52 Partly Cloudy 83 28.3 71 21.7 67 67 NNE 6 9 30.13 1020 10 16.0934 0 0

Powered by AerisWeather